When you browse on this site, cookies collect data to enhance your experience and personalize the content and advertising you see.
Visit our Privacy Policy to learn more. By continuing to use the site, you agree to this use of cookies and data.
  • In Latvia
  • List of Countries
  • For 7 days
  • Water Temperature
  • Satellite Maps
  • Weather Map
  • Weather Widgets
  • user-avatar
    Login

    Hourly Weather Townsville

    Today, 26 March, Tuesday

    Time Temperature Precipitation Wind Pressure Humidity
    00:00 +27°C° 0.3 mm 2 mps 753 mmHg 89%
    01:00 +27°C° 0.3 mm 2 mps 753 mmHg 89%
    02:00 +27°C° 0.1 mm 2 mps 753 mmHg 89%
    03:00 +27°C° 0.1 mm 3 mps 752 mmHg 89%
    04:00 +27°C° 0 mm 3 mps 752 mmHg 90%
    05:00 +27°C° 0.1 mm 3 mps 752 mmHg 90%
    06:00 +28°C° 0.1 mm 3 mps 753 mmHg 89%
    07:00 +28°C° 0.1 mm 3 mps 753 mmHg 89%
    08:00 +29°C° 0.1 mm 3 mps 753 mmHg 83%
    09:00 +30°C° 0.1 mm 3 mps 753 mmHg 77%
    10:00 +31°C° 0 mm 3 mps 753 mmHg 72%
    11:00 +31°C° 0 mm 3 mps 753 mmHg 69%
    12:00 +33°C° 0 mm 4 mps 752 mmHg 67%
    13:00 +33°C° 0 mm 4 mps 752 mmHg 64%
    14:00 +33°C° 0 mm 4 mps 751 mmHg 66%
    15:00 +33°C° 0 mm 4 mps 751 mmHg 67%
    16:00 +32°C° 0 mm 4 mps 750 mmHg 71%
    17:00 +30°C° 0 mm 3 mps 751 mmHg 75%
    18:00 +29°C° 0 mm 3 mps 751 mmHg 80%
    19:00 +28°C° 0 mm 2 mps 751 mmHg 84%
    20:00 +28°C° 0 mm 2 mps 752 mmHg 85%
    21:00 +28°C° 0 mm 2 mps 752 mmHg 87%
    22:00 +28°C° 0 mm 2 mps 753 mmHg 88%
    23:00 +28°C° 0.2 mm 2 mps 752 mmHg 89%

    Tomorrow, 27 March, Wednesday

    Time Temperature Precipitation Wind Pressure Humidity
    00:00 +27°C° 0.2 mm 2 mps 752 mmHg 90%
    01:00 +27°C° 0.2 mm 2 mps 752 mmHg 91%
    02:00 +27°C° 0.1 mm 2 mps 752 mmHg 91%
    03:00 +27°C° 0.1 mm 2 mps 751 mmHg 91%
    04:00 +27°C° 0.1 mm 2 mps 751 mmHg 91%
    05:00 +27°C° 0.3 mm 2 mps 751 mmHg 90%
    06:00 +28°C° 0.3 mm 2 mps 751 mmHg 88%
    07:00 +28°C° 0.3 mm 2 mps 752 mmHg 87%
    08:00 +29°C° 0.2 mm 2 mps 752 mmHg 81%
    09:00 +30°C° 0.2 mm 3 mps 752 mmHg 74%
    10:00 +31°C° 0.2 mm 3 mps 752 mmHg 68%
    11:00 +33°C° 0.2 mm 3 mps 751 mmHg 67%
    12:00 +33°C° 0.2 mm 4 mps 751 mmHg 66%
    13:00 +33°C° 0.2 mm 4 mps 750 mmHg 65%
    14:00 +33°C° 0.2 mm 4 mps 750 mmHg 67%
    15:00 +32°C° 0.2 mm 4 mps 750 mmHg 70%
    16:00 +32°C° 0.2 mm 4 mps 750 mmHg 72%
    17:00 +30°C° 0.3 mm 4 mps 750 mmHg 77%
    18:00 +29°C° 0.3 mm 3 mps 750 mmHg 81%
    19:00 +28°C° 0.3 mm 3 mps 750 mmHg 86%
    20:00 +28°C° 0.3 mm 3 mps 750 mmHg 87%
    21:00 +28°C° 0.3 mm 3 mps 751 mmHg 87%
    22:00 +28°C° 0.3 mm 3 mps 751 mmHg 88%
    23:00 +28°C° 0.5 mm 3 mps 751 mmHg 88%

    Day after tomorrow, 28 March, Thursday

    Time Temperature Precipitation Wind Pressure Humidity
    00:00 +28°C° 0.5 mm 3 mps 750 mmHg 89%
    01:00 +28°C° 0.5 mm 3 mps 750 mmHg 89%
    02:00 +27°C° 0.7 mm 3 mps 750 mmHg 89%
    03:00 +27°C° 0.7 mm 2 mps 749 mmHg 89%
    04:00 +27°C° 0.7 mm 2 mps 749 mmHg 89%
    05:00 +27°C° 0.2 mm 2 mps 749 mmHg 88%
    06:00 +27°C° 0.2 mm 2 mps 749 mmHg 87%
    07:00 +28°C° 0.2 mm 2 mps 750 mmHg 86%
    08:00 +29°C° 0.2 mm 2 mps 750 mmHg 82%
    09:00 +30°C° 0.2 mm 3 mps 750 mmHg 77%
    10:00 +32°C° 0.2 mm 4 mps 750 mmHg 73%
    11:00 +32°C° 0.2 mm 4 mps 750 mmHg 71%
    12:00 +33°C° 0.2 mm 4 mps 749 mmHg 70%
    13:00 +33°C° 0.2 mm 5 mps 749 mmHg 69%
    14:00 +32°C° 0.2 mm 5 mps 748 mmHg 70%
    15:00 +32°C° 0.2 mm 5 mps 748 mmHg 72%
    16:00 +32°C° 0.2 mm 5 mps 747 mmHg 74%
    17:00 +30°C° 0.4 mm 4 mps 748 mmHg 78%
    18:00 +29°C° 0.4 mm 4 mps 748 mmHg 81%
    19:00 +28°C° 0.4 mm 3 mps 748 mmHg 85%
    20:00 +28°C° 0.8 mm 3 mps 749 mmHg 85%
    21:00 +28°C° 0.8 mm 3 mps 750 mmHg 85%
    22:00 +28°C° 0.8 mm 3 mps 750 mmHg 85%
    23:00 +28°C° 0.9 mm 3 mps 750 mmHg 86%

    29 March, Friday

    Time Temperature Precipitation Wind Pressure Humidity
    00:00 +28°C° 0.9 mm 3 mps 749 mmHg 87%
    01:00 +28°C° 0.9 mm 3 mps 749 mmHg 88%
    02:00 +27°C° 1.4 mm 3 mps 749 mmHg 89%
    03:00 +27°C° 1.4 mm 3 mps 749 mmHg 89%
    04:00 +27°C° 1.4 mm 3 mps 748 mmHg 90%
    05:00 +27°C° 0.3 mm 4 mps 749 mmHg 89%
    06:00 +27°C° 0.3 mm 4 mps 749 mmHg 87%
    07:00 +28°C° 0.3 mm 4 mps 749 mmHg 86%
    08:00 +29°C° 0 mm 4 mps 750 mmHg 79%
    09:00 +30°C° 0 mm 4 mps 750 mmHg 71%
    10:00 +32°C° 0 mm 5 mps 750 mmHg 63%
    11:00 +32°C° 0 mm 5 mps 750 mmHg 60%
    12:00 +33°C° 0 mm 5 mps 749 mmHg 57%
    13:00 +33°C° 0 mm 5 mps 749 mmHg 54%
    14:00 +33°C° 0 mm 5 mps 748 mmHg 55%
    15:00 +32°C° 0 mm 4 mps 748 mmHg 57%
    16:00 +32°C° 0 mm 4 mps 747 mmHg 59%
    17:00 +30°C° 0 mm 4 mps 748 mmHg 67%
    18:00 +29°C° 0 mm 4 mps 748 mmHg 74%
    19:00 +28°C° 0 mm 3 mps 749 mmHg 81%
    20:00 +28°C° 0.1 mm 3 mps 749 mmHg 82%
    21:00 +28°C° 0.1 mm 3 mps 750 mmHg 83%
    22:00 +28°C° 0.1 mm 3 mps 750 mmHg 84%
    23:00 +28°C° 0 mm 3 mps 750 mmHg 84%

    30 March, Saturday

    Time Temperature Precipitation Wind Pressure Humidity
    00:00 +28°C° 0 mm 3 mps 750 mmHg 84%
    01:00 +28°C° 0 mm 3 mps 750 mmHg 83%
    02:00 +28°C° 0 mm 3 mps 749 mmHg 83%
    03:00 +28°C° 0 mm 2 mps 749 mmHg 82%
    04:00 +28°C° 0 mm 2 mps 749 mmHg 81%
    05:00 +28°C° 0.1 mm 2 mps 749 mmHg 82%
    06:00 +28°C° 0.1 mm 2 mps 750 mmHg 83%
    07:00 +28°C° 0.1 mm 2 mps 750 mmHg 84%
    08:00 +29°C° 0.5 mm 2 mps 750 mmHg 82%
    09:00 +29°C° 0.5 mm 3 mps 750 mmHg 80%
    10:00 +30°C° 0.5 mm 3 mps 750 mmHg 78%
    11:00 +31°C° 0.4 mm 3 mps 750 mmHg 75%
    12:00 +32°C° 0.4 mm 4 mps 749 mmHg 72%
    13:00 +33°C° 0.4 mm 4 mps 749 mmHg 69%
    14:00 +31°C° 0.1 mm 3 mps 748 mmHg 72%
    15:00 +31°C° 0.1 mm 3 mps 748 mmHg 74%
    16:00 +30°C° 0.1 mm 3 mps 748 mmHg 77%
    17:00 +29°C° 1.3 mm 2 mps 748 mmHg 80%
    18:00 +29°C° 1.3 mm 1 mps 749 mmHg 84%
    19:00 +26°C° 1.3 mm 0 mps 749 mmHg 88%
    20:00 +28°C° 1.4 mm 1 mps 750 mmHg 88%
    21:00 +27°C° 1.4 mm 1 mps 750 mmHg 89%
    22:00 +27°C° 1.4 mm 1 mps 750 mmHg 89%
    23:00 +27°C° 0.8 mm 1 mps 750 mmHg 90%

    1 April, Monday

    Time Temperature Precipitation Wind Pressure Humidity
    00:00 +25°C° 0.2 mm 4 mps 753 mmHg 89%
    01:00 +25°C° 0.2 mm 4 mps 752 mmHg 89%
    02:00 +23°C° 0 mm 4 mps 752 mmHg 88%
    03:00 +23°C° 0 mm 4 mps 752 mmHg 88%
    04:00 +23°C° 0 mm 4 mps 752 mmHg 88%
    05:00 +23°C° 0 mm 4 mps 752 mmHg 87%
    06:00 +23°C° 0 mm 4 mps 753 mmHg 87%
    07:00 +22°C° 0 mm 4 mps 753 mmHg 86%
    08:00 +25°C° 0 mm 4 mps 753 mmHg 79%
    09:00 +27°C° 0 mm 4 mps 753 mmHg 72%
    10:00 +29°C° 0 mm 4 mps 754 mmHg 66%
    11:00 +30°C° 0 mm 3 mps 753 mmHg 62%
    12:00 +31°C° 0 mm 3 mps 752 mmHg 59%
    13:00 +33°C° 0 mm 3 mps 752 mmHg 55%
    14:00 +33°C° 0.1 mm 3 mps 751 mmHg 57%
    15:00 +33°C° 0.1 mm 3 mps 751 mmHg 59%
    16:00 +31°C° 0.1 mm 3 mps 751 mmHg 61%
    17:00 +30°C° 0.3 mm 3 mps 751 mmHg 67%
    18:00 +29°C° 0.3 mm 3 mps 752 mmHg 73%
    19:00 +28°C° 0.3 mm 4 mps 752 mmHg 79%
    20:00 +27°C° 0.1 mm 4 mps 752 mmHg 80%
    21:00 +27°C° 0.1 mm 4 mps 753 mmHg 82%
    22:00 +27°C° 0.1 mm 4 mps 753 mmHg 83%
    23:00 +26°C° 0 mm 5 mps 753 mmHg 84%
    Show more